Time,TemperatureF,DewpointF,PressureIn,WindDirection,WindDirectionDegrees,WindSpeedMPH,WindSpeedGustMPH,Humidity,HourlyPrecipIn,Conditions,Clouds,dailyrainin,SoftwareType,DateUTC
2013-03-21 18:05:00,27.0,16.8,18.39,East,99,2.0,9.0,65,0.00,,,0.01,Wunderground v.1.15,2013-03-21 22:05:00,
2013-03-21 18:10:00,27.0,17.1,18.39,NNW,338,3.0,3.0,66,0.00,,,0.01,Wunderground v.1.15,2013-03-21 22:10:00,
2013-03-21 18:15:00,27.1,17.2,18.39,South,172,3.0,9.0,66,0.00,,,0.01,Wunderground v.1.15,2013-03-21 22:15:00,
2013-03-21 18:20:00,27.0,16.8,18.39,WNW,286,3.0,3.0,65,0.00,,,0.01,Wunderground v.1.15,2013-03-21 22:20:00,
2013-03-21 18:25:00,26.8,16.6,18.39,WNW,294,2.0,9.0,65,0.00,,,0.01,Wunderground v.1.15,2013-03-21 22:25:00,
2013-03-21 18:35:00,26.6,16.4,18.39,North,351,1.0,9.0,65,0.00,,,0.01,Wunderground v.1.15,2013-03-21 22:35:00,
2013-03-21 18:40:00,26.6,16.8,18.39,North,351,1.0,1.0,66,0.00,,,0.01,Wunderground v.1.15,2013-03-21 22:40:00,
2013-03-21 18:45:00,26.6,16.8,18.39,North,359,0.0,9.0,66,0.00,,,0.01,Wunderground v.1.15,2013-03-21 22:45:00,
2013-03-21 18:55:00,26.6,16.8,18.39,ENE,59,2.0,9.0,66,0.00,,,0.01,Wunderground v.1.15,2013-03-21 22:55:00,
2013-03-21 19:00:00,26.5,16.7,18.39,ENE,58,1.0,1.0,66,0.00,,,0.01,Wunderground v.1.15,2013-03-21 23:00:00,
2013-03-21 19:10:00,26.5,17.4,18.39,ENE,64,1.0,6.0,68,0.00,,,0.01,Wunderground v.1.15,2013-03-21 23:10:00,
2013-03-21 19:15:00,26.5,17.7,18.39,ESE,117,2.0,7.0,69,0.00,,,0.01,Wunderground v.1.15,2013-03-21 23:15:00,
2013-03-21 19:25:00,26.6,18.5,18.39,ENE,68,3.0,6.0,71,0.00,,,0.01,Wunderground v.1.15,2013-03-21 23:25:00,
2013-03-21 19:30:00,26.5,18.7,18.39,SE,124,2.0,6.0,72,0.00,,,0.01,Wunderground v.1.15,2013-03-21 23:30:00,
2013-03-21 19:35:00,26.5,19.0,18.39,ESE,117,2.0,6.0,73,0.00,,,0.01,Wunderground v.1.15,2013-03-21 23:35:00,
2013-03-21 19:45:00,26.5,19.3,18.39,ENE,73,1.0,6.0,74,0.00,,,0.01,Wunderground v.1.15,2013-03-21 23:45:00,
2013-03-21 19:50:00,26.4,19.5,18.39,NE,52,1.0,1.0,75,0.00,,,0.01,Wunderground v.1.15,2013-03-21 23:50:00,
2013-03-21 19:55:00,26.2,19.4,18.39,North,355,2.0,8.0,75,0.00,,,0.01,Wunderground v.1.15,2013-03-21 23:55:00,
2013-03-21 20:00:00,26.1,19.6,18.39,North,2,3.0,8.0,76,0.00,,,0.00,Wunderground v.1.15,2013-03-22 00:00:00,
2013-03-21 20:09:00,26.0,20.1,18.39,NNW,336,4.0,4.0,78,0.00,,,0.00,Wunderground v.1.15,2013-03-22 00:09:00,
2013-03-21 20:15:00,25.9,20.3,18.39,ESE,113,2.0,8.0,79,0.00,,,0.00,Wunderground v.1.15,2013-03-22 00:15:00,
2013-03-21 20:24:00,25.5,20.5,18.39,NE,37,2.0,8.0,81,0.00,,,0.00,Wunderground v.1.15,2013-03-22 00:24:00,
2013-03-21 20:30:00,25.2,20.8,18.39,NNE,33,2.0,8.0,83,0.00,,,0.00,Wunderground v.1.15,2013-03-22 00:30:00,
2013-03-21 20:39:00,24.8,20.9,18.39,North,8,3.0,3.0,85,0.00,,,0.00,Wunderground v.1.15,2013-03-22 00:39:00,
2013-03-21 20:45:00,24.7,21.1,18.39,North,7,2.0,4.0,86,0.00,,,0.00,Wunderground v.1.15,2013-03-22 00:45:00,
2013-03-21 20:50:00,24.5,21.2,18.39,North,9,2.0,8.0,87,0.00,,,0.00,Wunderground v.1.15,2013-03-22 00:50:00,
2013-03-21 20:55:00,24.3,21.0,18.39,North,9,2.0,8.0,87,0.00,,,0.00,Wunderground v.1.15,2013-03-22 00:55:00,
2013-03-21 21:00:00,24.2,21.2,18.39,North,11,1.0,7.0,88,0.00,,,0.00,Wunderground v.1.15,2013-03-22 01:00:00,
2013-03-21 21:10:00,24.4,21.6,18.39,NNE,12,1.0,7.0,89,0.00,,,0.00,Wunderground v.1.15,2013-03-22 01:10:00,
2013-03-21 21:15:00,24.5,21.7,18.39,NNE,13,1.0,7.0,89,0.00,,,0.00,Wunderground v.1.15,2013-03-22 01:15:00,
2013-03-21 21:25:00,24.7,22.2,18.39,NNE,12,2.0,7.0,90,0.00,,,0.00,Wunderground v.1.15,2013-03-22 01:25:00,
2013-03-21 21:30:00,24.7,22.2,18.39,NNE,12,1.0,7.0,90,0.00,,,0.00,Wunderground v.1.15,2013-03-22 01:30:00,
2013-03-21 21:39:00,24.7,22.2,18.39,North,11,2.0,7.0,90,0.00,,,0.00,Wunderground v.1.15,2013-03-22 01:39:00,
2013-03-21 21:44:00,24.7,22.2,18.39,North,11,2.0,7.0,90,0.00,,,0.00,Wunderground v.1.15,2013-03-22 01:44:00,
2013-03-21 21:50:00,24.6,22.1,18.39,North,11,2.0,2.0,90,0.00,,,0.00,Wunderground v.1.15,2013-03-22 01:50:00,
2013-03-21 22:00:00,24.6,22.1,18.39,NNE,12,3.0,6.0,90,0.00,,,0.00,Wunderground v.1.15,2013-03-22 02:00:00,
2013-03-21 22:10:00,24.5,22.0,18.39,NNE,17,3.0,3.0,90,0.00,,,0.00,Wunderground v.1.15,2013-03-22 02:10:00,
2013-03-21 22:15:00,24.5,22.2,18.39,NNE,16,2.0,6.0,91,0.00,,,0.00,Wunderground v.1.15,2013-03-22 02:15:00,
2013-03-21 22:20:00,24.6,22.3,18.39,NNE,16,1.0,6.0,91,0.00,,,0.00,Wunderground v.1.15,2013-03-22 02:20:00,
2013-03-21 22:30:00,24.7,22.4,18.39,NNE,16,2.0,2.0,91,0.00,,,0.00,Wunderground v.1.15,2013-03-22 02:30:00,
2013-03-21 22:35:00,24.7,22.4,18.39,NNE,16,2.0,3.0,91,0.00,,,0.00,Wunderground v.1.15,2013-03-22 02:35:00,
2013-03-21 22:40:00,24.7,22.4,18.39,NNE,14,3.0,3.0,91,0.00,,,0.00,Wunderground v.1.15,2013-03-22 02:40:00,
2013-03-21 22:45:00,24.6,22.3,18.39,NNE,14,3.0,6.0,91,0.00,,,0.00,Wunderground v.1.15,2013-03-22 02:45:00,
2013-03-21 22:50:00,24.6,22.3,18.39,NNE,14,3.0,3.0,91,0.00,,,0.00,Wunderground v.1.15,2013-03-22 02:50:00,
2013-03-21 23:00:00,24.6,22.3,18.39,NNE,20,3.0,7.0,91,0.00,,,0.00,Wunderground v.1.15,2013-03-22 03:00:00,
2013-03-21 23:10:00,24.5,22.2,18.39,NNE,22,4.0,4.0,91,0.00,,,0.00,Wunderground v.1.15,2013-03-22 03:10:00,
2013-03-21 23:15:00,24.5,22.2,18.39,NNE,21,3.0,7.0,91,0.00,,,0.00,Wunderground v.1.15,2013-03-22 03:15:00,
2013-03-21 23:20:00,24.5,22.5,18.39,NNE,21,3.0,3.0,92,0.00,,,0.00,Wunderground v.1.15,2013-03-22 03:20:00,
2013-03-21 23:25:00,24.5,22.5,18.39,NNE,21,3.0,7.0,92,0.00,,,0.00,Wunderground v.1.15,2013-03-22 03:25:00,
2013-03-21 23:30:00,24.5,22.5,18.39,NNE,21,3.0,7.0,92,0.00,,,0.00,Wunderground v.1.15,2013-03-22 03:30:00,
2013-03-21 23:35:00,24.4,22.4,18.39,NNE,23,4.0,7.0,92,0.00,,,0.00,Wunderground v.1.15,2013-03-22 03:35:00,
2013-03-21 23:40:00,24.4,22.4,18.39,NNE,22,4.0,4.0,92,0.00,,,0.00,Wunderground v.1.15,2013-03-22 03:40:00,
2013-03-21 23:45:00,24.4,22.4,18.39,NNE,20,3.0,7.0,92,0.00,,,0.00,Wunderground v.1.15,2013-03-22 03:45:00,
2013-03-21 23:50:00,24.4,22.4,18.39,NNE,20,4.0,7.0,92,0.00,,,0.00,Wunderground v.1.15,2013-03-22 03:50:00,
2013-03-21 23:55:00,24.4,22.4,18.39,NNE,21,4.0,7.0,92,0.00,,,0.00,Wunderground v.1.15,2013-03-22 03:55:00,